sat.trackr.live / text

‹ back to catalog

STARLINK-3277

NORAD 50182 · 2021-125AC

PAYLOAD ACTIVE UNKNOWN

§ Identity

Operator
Country
US
Launch date
2021-12-18
Launch site
AFWTR
Launch vehicle
Mass (kg)
RCS (m²)

Purposes: comms

External: N2YO · Heavens-Above · Gunter

§ Orbital elements

Epoch: 2026-05-24T18:10:34.796352Z

Period
95.44 min
Inclination
53.2168°
Eccentricity
0.0001382
Mean motion
15.08838169 rev/d
Perigee alt
538.8 km
Apogee alt
540.7 km
Semi-major
6,917.9 km
B*
2.6121e-5
RAAN
267.4841°
Arg perigee
93.0237°
Mean anomaly
267.0913°
Rev number
24,812

§ Raw data

STARLINK-32771 50182U 21125AC  26144.75734718  .00000128  00000+0  26121-4 0  99922 50182  53.2168 267.4841 0001382  93.0237 267.0913 15.08838169248127

JSON: /api/v1/satellites/50182 · /tle

For live sub-satellite position, see the globe view (requires WebGL).

§ Visibility from observer

Set your observer location to see the next 7 days of passes ≥ 10°. The values pass through the URL so the page stays shareable.

No JS? Fill the form by hand. The geolocation button needs JavaScript.